GFSNW_sfc_rhum_141.txt.gz
RH
85 85 81 83 86 86 91 98 99 95 93 99 94 92 70 59 56 47 52 68 68 78 69 64 66 59 46 38 40 49 55 78 89 56 37 40 56 62 72 98 76 82 91 90
86 85 83 87 87 87 98 99 97 97 82 96 92 70 65 64 62 54 58 60 70 83 82 79 77 59 46 53 52 63 68 85 79 73 61 50 69 69 67 74 86 88 95 88
85 84 86 87 86 87 97 99 100 100 99 90 74 70 72 68 60 62 50 66 63 84 93 85 82 74 60 58 55 70 67 75 78 84 82 79 81 67 79 90 98 94 94 96
86 85 84 86 86 88 98 100 96 87 98 98 95 72 74 68 67 59 60 68 69 76 89 93 93 75 65 66 74 74 71 84 86 78 78 80 94 89 79 85 85 92 85 88
84 84 84 86 87 88 98 100 99 96 89 86 94 89 80 72 63 61 72 70 59 58 69 70 81 79 80 74 80 87 82 98 99 99 91 97 100 99 97 85 80 89 89 92
84 84 86 88 88 87 99 98 94 98 94 90 95 86 78 73 68 62 55 64 64 70 71 60 58 64 64 70 85 98 96 99 99 90 89 93 98 89 87 82 78 80 91 82
85 84 85 88 88 88 96 98 98 100 99 98 92 82 85 87 70 79 63 57 66 58 61 61 56 60 61 69 68 64 90 95 85 92 91 96 78 77 72 73 76 81 85 94
86 86 86 86 87 88 99 98 99 98 99 93 89 85 95 95 84 87 77 72 64 54 67 84 98 87 76 71 64 68 64 86 93 89 93 79 85 74 81 82 79 78 84 90
86 86 87 85 85 87 98 99 98 99 97 94 73 91 94 99 99 98 93 66 68 60 82 98 96 94 79 78 71 61 68 72 90 96 91 94 76 67 59 56 87 80 81 90
87 86 86 87 87 85 96 98 95 98 100 89 81 94 94 92 96 99 93 73 74 68 92 97 97 94 60 91 85 95 94 100 98 92 96 83 70 63 56 79 78 79 78 83
86 86 86 86 89 86 94 96 94 98 99 89 87 73 85 88 86 96 92 93 92 90 96 95 92 84 74 78 68 84 90 95 97 98 95 88 66 67 73 76 83 77 78 78
87 87 88 88 88 85 90 99 94 94 99 98 88 79 76 72 61 80 80 78 82 81 90 80 73 91 88 80 92 74 86 75 84 80 86 86 86 84 75 73 81 80 78 76
87 88 87 86 86 86 93 97 96 98 99 97 95 88 71 74 71 62 86 84 65 66 69 83 83 72 80 96 91 91 78 70 90 83 87 88 82 76 73 77 82 80 74 74
88 86 86 89 90 89 85 98 96 99 93 100 97 66 71 66 66 74 72 78 80 81 86 82 85 75 74 84 76 80 77 73 88 90 87 86 79 78 79 84 82 81 78 77
86 85 86 90 88 87 93 97 94 97 93 99 98 70 57 60 70 68 69 73 78 77 74 79 78 81 78 80 81 85 75 84 88 86 78 76 79 82 79 81 82 79 76 73
88 84 89 89 92 91 99 100 98 94 86 87 99 87 67 64 71 71 71 67 72 72 78 89 89 75 79 93 95 76 76 69 67 82 80 80 86 79 71 77 74 71 70 64
87 87 89 92 94 99 98 93 86 82 78 84 92 96 66 61 66 75 69 72 78 71 79 81 79 74 78 96 94 80 82 80 81 81 78 82 78 79 70 68 68 64 62 59
87 90 92 94 94 94 91 76 82 89 78 74 93 92 77 63 81 77 84 80 80 84 78 83 76 74 79 89 83 83 82 82 84 79 77 78 75 64 65 64 64 64 58 53
92 93 93 92 92 90 72 81 84 88 73 90 94 91 93 74 85 85 86 81 92 86 88 79 78 82 76 74 81 81 80 77 81 81 83 78 73 75 71 60 63 62 64 60
91 92 86 100 82 81 78 74 83 86 88 87 94 91 95 82 91 93 88 92 93 93 88 83 94 94 77 68 69 71 76 75 76 88 93 91 87 81 75 70 67 62 61 60
92 98 96 78 80 70 84 90 87 93 92 90 91 88 95 89 88 96 92 94 95 91 87 79 95 95 83 68 72 74 73 71 70 70 76 78 76 77 77 73 70 64 60 57
83 81 81 80 84 86 80 94 88 86 90 90 93 92 89 96 86 89 92 90 94 94 93 91 96 92 75 78 77 74 74 75 73 72 75 78 73 74 73 72 71 66 63 76
72 76 80 82 88 84 74 83 92 97 97 95 94 95 94 92 91 96 93 93 96 93 93 91 93 87 78 77 76 77 76 76 77 77 79 78 76 74 73 73 73 77 81 86
83 78 77 85 95 86 95 98 98 96 98 94 96 99 97 99 97 97 90 94 92 96 97 93 96 86 86 84 82 77 81 86 82 82 85 84 83 87 89 85 86 85 85 91
91 88 99 98 99 99 99 98 99 99 94 92 95 95 94 99 96 95 92 94 97 92 92 96 99 94 88 86 84 92 89 93 92 93 91 92 90 88 93 95 94 89 89 88
92 96 94 97 96 97 99 99 99 99 98 92 92 95 94 96 95 93 84 86 92 94 100 99 98 98 99 98 96 96 95 94 92 92 93 93 91 91 92 95 95 94 88 88
91 99 99 100 99 99 99 99 100 98 94 94 95 89 88 93 95 95 94 94 96 99 99 98 98 99 99 99 98 97 94 93 94 96 94 97 96 95 93 93 98 96 93 93

GFSNW_sfc_rhum_144.txt.gz
RH
82 86 86 86 86 86 86 94 97 94 89 99 98 86 78 65 59 57 58 66 63 70 72 73 69 63 48 40 43 49 49 72 85 53 40 42 60 72 73 96 91 88 90 81
82 87 87 86 87 85 98 97 96 95 87 93 92 82 63 59 67 64 65 65 70 83 84 80 78 62 48 47 49 56 61 84 85 71 63 57 69 77 81 96 100 96 97 89
84 85 86 86 85 83 95 97 99 98 99 88 83 79 72 74 56 61 60 66 68 74 92 85 85 76 64 70 66 64 64 74 72 80 74 86 88 77 76 90 98 92 93 82
82 84 86 87 86 81 95 99 96 88 98 98 97 81 78 75 72 60 70 80 74 79 93 88 76 82 66 62 72 76 82 82 88 80 79 86 98 98 90 98 91 99 93 90
84 86 85 87 86 85 98 100 98 98 93 88 96 90 80 82 68 71 75 73 62 67 83 74 83 85 83 76 81 85 89 94 98 95 89 89 98 95 94 93 97 98 92 84
81 84 84 85 86 86 98 98 96 96 86 88 97 85 82 79 65 63 58 59 64 88 66 55 53 49 48 63 74 97 95 98 98 93 92 98 99 92 94 85 85 78 91 76
83 83 83 83 85 86 96 98 98 100 94 98 90 78 74 77 70 75 64 61 73 69 56 63 68 75 64 70 82 87 98 98 98 97 96 97 76 76 74 81 74 76 79 93
81 82 82 84 84 86 97 98 99 99 99 89 84 92 95 89 86 95 89 82 71 72 83 99 99 98 95 92 82 79 73 96 98 97 96 78 66 74 80 81 73 74 82 93
82 84 83 84 84 83 96 96 96 99 100 98 73 87 83 92 92 94 90 71 69 80 99 99 97 87 92 89 81 66 71 80 98 98 90 90 71 68 64 62 84 82 83 91
84 86 84 84 84 83 94 99 96 98 99 83 84 98 95 93 98 99 92 84 88 86 99 98 98 93 71 90 84 95 98 100 97 98 96 90 68 67 60 80 74 83 82 85
86 91 87 86 85 85 91 97 97 96 99 90 81 79 94 92 96 99 96 92 95 99 99 98 97 94 82 88 70 86 86 96 98 98 97 93 68 68 74 74 86 81 83 83
85 89 86 88 88 86 90 99 94 92 98 95 92 87 80 68 75 87 91 84 95 97 98 95 88 86 88 79 92 74 91 78 88 83 85 82 86 84 79 76 80 82 83 80
88 86 84 84 84 86 89 98 95 98 99 97 98 91 78 81 82 72 91 89 72 76 76 86 85 79 88 94 92 88 78 69 85 79 85 88 85 78 75 79 82 79 78 81
87 85 85 84 83 84 86 98 98 96 98 100 96 72 79 66 74 79 80 78 78 81 89 87 89 80 78 92 79 85 83 73 84 86 86 85 81 80 78 85 83 80 80 82
88 88 87 86 86 86 93 97 97 94 98 100 99 80 64 66 77 87 82 78 86 92 97 97 88 82 79 89 84 86 77 80 88 86 75 73 75 83 80 84 87 84 82 80
88 87 85 88 91 89 97 100 95 93 94 100 99 95 83 68 82 84 82 82 89 92 97 97 88 77 80 93 92 74 76 72 68 78 80 86 89 83 76 82 84 81 76 71
88 86 86 88 92 99 98 97 94 87 96 99 99 99 69 64 70 75 81 80 86 80 80 83 83 82 81 96 91 79 85 82 85 82 78 82 81 82 74 74 76 71 69 79
87 87 90 91 91 94 99 94 91 88 95 86 99 96 79 64 78 79 83 82 85 82 78 84 76 76 82 85 81 89 88 87 85 83 80 76 75 72 76 72 69 70 67 68
88 88 88 95 98 99 97 87 90 94 92 99 96 92 93 75 87 86 87 81 92 84 86 79 75 81 78 67 87 90 87 81 86 87 79 75 74 75 76 72 67 64 64 58
88 97 99 100 98 83 86 91 97 98 90 85 91 89 95 84 90 92 88 91 92 92 89 85 94 91 77 71 78 79 80 81 82 90 93 86 81 76 74 71 65 61 61 59
98 100 100 89 82 90 87 94 91 94 92 89 90 87 94 88 88 95 92 93 94 91 88 83 95 94 82 78 79 79 80 76 75 73 83 81 77 78 79 74 71 66 64 63
90 96 85 80 84 88 79 92 89 84 90 93 95 92 89 96 89 90 92 91 94 91 94 92 94 90 79 80 81 80 82 78 74 74 80 83 80 80 78 76 72 69 67 77
88 90 82 83 88 80 74 84 95 97 98 97 94 96 93 92 90 96 93 92 95 93 93 92 92 87 81 85 84 85 83 81 79 80 80 80 79 76 76 74 73 77 82 89
89 84 89 89 94 95 91 97 97 97 99 97 96 98 96 99 95 97 90 95 90 93 95 88 96 88 88 87 85 83 85 86 83 83 86 86 85 89 90 88 88 85 85 91
92 88 99 96 99 99 98 99 99 98 95 93 94 95 92 98 96 95 94 95 98 90 91 96 99 96 88 86 84 91 91 93 93 94 92 93 90 88 93 95 94 89 89 90
93 93 95 96 97 98 98 99 99 99 97 93 90 92 94 98 94 90 82 87 90 94 98 99 97 98 98 96 94 94 94 92 93 92 93 94 93 90 92 94 92 94 89 89
92 99 99 100 98 99 99 99 100 99 94 96 93 89 89 91 96 98 89 95 98 100 99 99 99 99 99 99 96 95 93 93 93 95 93 97 96 93 91 91 97 93 90 91

GFSNW_sfc_rhum_150.txt.gz
RH
80 81 81 84 83 83 79 73 93 76 73 89 76 69 49 55 39 33 31 31 29 34 35 37 35 30 22 27 30 34 30 42 61 34 24 22 26 31 32 64 55 60 77 85
80 81 81 83 83 80 72 79 78 86 80 86 82 54 52 41 44 34 38 39 38 41 58 75 66 32 24 24 24 32 35 53 42 28 36 32 36 33 35 40 55 75 91 82
80 81 81 82 83 80 63 76 99 95 98 62 46 53 52 54 44 40 37 42 48 47 72 49 88 46 38 49 41 63 50 43 48 60 45 36 42 34 34 45 94 78 79 90
81 80 81 81 82 83 71 82 77 63 97 95 62 50 48 49 49 42 42 51 47 46 76 55 55 44 40 35 39 35 38 61 56 46 45 36 45 47 44 44 52 75 82 67
79 80 82 82 82 80 81 98 83 66 54 59 69 67 61 50 42 51 53 52 41 47 53 50 55 48 49 60 52 49 43 65 88 98 55 42 80 99 99 66 59 58 54 58
80 82 82 82 81 80 89 84 70 60 66 63 75 73 60 54 50 48 43 42 47 54 49 44 44 46 48 51 54 58 62 58 58 63 50 48 69 88 87 51 46 51 59 44
81 83 80 79 80 72 90 93 75 72 77 67 62 52 52 53 51 56 44 47 56 46 44 45 54 58 56 55 54 50 59 58 54 70 60 87 81 43 40 48 45 40 42 43
81 82 82 81 81 79 76 85 84 90 82 54 51 51 51 49 51 57 58 49 43 43 94 99 98 72 77 62 56 57 60 66 68 75 57 44 35 31 50 55 41 39 44 45
80 82 81 80 80 80 81 80 80 81 76 69 59 61 61 72 72 69 62 48 48 60 99 99 88 65 53 53 57 47 50 63 71 66 86 61 42 43 43 43 54 44 48 56
80 79 81 82 82 82 82 81 77 79 93 60 68 83 77 70 68 77 68 66 68 74 99 97 75 63 39 56 57 81 75 78 86 72 72 48 37 42 44 62 60 49 47 50
80 82 82 84 85 83 82 90 82 89 96 71 67 63 63 60 65 75 58 85 97 100 100 90 69 64 56 51 39 57 64 74 76 73 78 78 46 50 56 53 53 48 49 52
83 84 85 85 84 81 80 95 83 88 99 93 65 62 53 52 51 70 92 86 94 97 98 87 64 71 59 48 64 36 58 46 56 53 50 59 50 56 50 46 47 52 51 52
85 85 86 86 86 84 82 96 96 96 98 96 86 72 52 50 58 60 95 97 90 93 81 88 76 68 45 60 50 47 47 42 60 62 53 54 54 52 47 46 49 47 46 48
87 87 86 85 85 84 84 97 95 86 98 100 69 50 64 54 54 61 73 75 78 88 94 93 70 68 53 54 51 55 46 53 56 59 51 56 54 51 50 52 50 50 48 50
87 86 84 87 86 91 94 94 92 85 85 97 87 64 49 51 56 69 68 85 95 97 97 99 94 56 61 56 61 62 48 51 72 78 54 54 54 54 52 56 54 50 51 53
84 85 88 91 92 91 97 100 97 82 94 99 82 61 73 63 61 74 86 96 96 98 98 98 93 71 75 91 67 44 44 47 48 52 55 62 64 57 52 52 51 50 50 47
84 87 88 89 91 96 98 94 80 80 88 100 95 69 71 67 70 90 97 97 97 97 98 99 95 86 80 97 72 53 52 49 58 54 56 64 55 56 52 50 49 55 47 47
87 85 85 88 90 89 93 79 91 90 96 98 99 80 83 87 99 100 96 99 98 99 98 92 98 79 96 96 54 54 56 56 57 55 52 48 47 49 50 49 50 54 52 51
91 91 89 92 95 98 94 80 90 93 92 100 100 79 95 93 94 95 94 96 99 84 93 89 86 96 93 62 47 57 58 55 56 53 50 50 52 51 51 50 52 51 53 52
83 81 95 100 98 84 90 97 99 99 98 98 96 62 93 88 96 86 73 68 71 77 69 67 90 67 51 41 44 49 54 52 51 60 60 57 57 55 53 51 50 50 53 50
92 100 100 87 88 96 99 100 100 100 100 96 69 66 88 79 97 77 58 71 68 64 68 73 68 62 56 51 52 53 54 51 48 47 48 48 50 54 54 53 52 51 54 57
95 95 94 97 99 100 100 96 96 93 72 74 78 72 83 97 77 59 69 70 74 60 71 81 72 67 59 60 59 57 54 51 52 49 51 54 52 52 53 52 52 50 49 67
96 98 100 99 96 97 96 91 79 89 86 86 85 99 97 88 73 84 73 99 91 73 94 70 66 66 63 60 58 59 56 55 55 56 57 54 55 54 55 55 53 64 69 80
99 94 97 96 92 80 76 77 85 95 89 86 80 94 90 78 84 96 99 91 79 93 88 65 76 78 76 67 63 60 65 70 64 64 65 79 84 95 100 100 96 90 85 84
97 88 90 89 89 92 95 98 94 93 81 77 76 73 66 87 97 83 86 98 88 73 68 82 91 88 75 74 75 79 95 100 100 96 100 100 95 95 93 94 100 96 86 83
86 84 94 92 98 100 100 100 100 88 80 76 63 68 82 84 74 76 80 68 61 82 93 96 88 87 85 86 91 100 100 96 98 98 99 96 93 96 96 89 88 84 82 81
88 96 97 100 99 100 100 100 98 87 80 94 63 81 72 73 77 78 70 88 92 95 96 97 93 95 97 96 96 96 100 100 97 96 94 94 92 86 79 84 89 83 83 83

GFSNW_sfc_rhum_153.txt.gz
RH
84 83 83 83 83 85 81 75 89 57 53 80 65 66 32 42 23 27 24 23 21 22 21 31 28 23 17 18 17 24 21 34 54 31 18 16 19 23 31 62 47 44 66 87
84 82 82 82 82 82 59 82 74 66 63 83 70 37 32 34 25 22 20 22 23 25 40 66 44 25 18 19 23 23 24 46 47 31 22 14 21 20 21 27 39 61 83 75
83 83 82 82 80 80 77 71 99 97 89 48 41 40 40 40 30 24 23 27 30 35 46 40 73 34 26 28 26 59 46 38 39 53 37 28 41 41 36 43 72 71 72 77
83 83 82 81 79 78 85 67 70 58 98 88 51 35 34 36 39 30 28 32 34 39 72 52 47 36 32 30 38 35 38 50 45 34 31 30 34 33 32 29 32 56 74 44
86 86 83 80 78 78 76 94 72 41 37 52 54 50 42 35 29 36 37 38 31 33 38 44 47 42 46 47 42 47 35 54 53 100 50 39 62 69 74 44 39 40 36 39
91 88 84 80 78 72 71 47 40 43 54 50 62 58 45 41 34 33 32 33 34 39 36 38 41 42 47 48 48 51 51 54 60 66 38 33 49 76 59 33 27 28 37 35
89 87 85 80 78 66 48 50 50 59 76 46 44 40 40 41 39 43 34 35 42 35 36 44 42 44 47 50 53 43 53 56 53 64 48 70 52 25 26 33 31 26 27 26
92 93 87 81 78 73 65 52 56 65 75 44 43 43 39 37 37 42 39 34 32 34 66 77 73 57 56 53 50 46 43 53 68 71 55 36 26 24 30 37 39 27 29 33
88 93 86 82 80 77 76 65 51 71 68 58 34 38 38 48 49 51 50 40 42 54 89 98 80 56 44 40 43 38 44 52 70 60 61 58 34 34 31 34 48 39 35 41
89 92 86 82 78 80 71 83 71 78 86 43 44 51 58 51 54 56 46 60 59 58 100 99 73 62 37 51 48 63 64 78 91 73 66 40 22 32 35 53 61 43 35 39
82 82 83 81 82 83 76 80 77 75 75 50 49 45 52 54 74 79 55 62 63 93 100 89 61 62 48 54 37 62 55 71 71 64 66 68 25 39 51 50 43 39 37 40
84 85 86 84 82 82 79 92 78 76 86 73 69 49 42 41 42 60 57 58 88 96 99 95 71 74 57 56 82 37 68 45 51 46 53 46 39 47 40 39 39 42 40 41
84 82 83 84 82 81 76 85 86 91 98 96 74 57 47 45 50 48 78 56 58 77 76 97 97 93 56 76 58 46 52 27 45 53 43 36 43 43 40 40 41 38 38 40
86 85 85 84 82 80 77 89 84 82 94 94 60 37 49 40 41 49 53 57 60 68 78 98 96 85 54 55 52 53 40 46 51 53 40 39 41 41 43 42 40 40 39 41
87 87 86 84 84 82 82 87 88 68 68 86 72 52 43 40 47 52 63 66 73 88 99 100 94 58 65 50 48 51 34 41 64 77 49 45 49 44 42 46 45 41 42 44
84 85 85 85 85 84 96 100 96 91 91 97 78 39 42 43 47 52 60 75 79 97 99 98 80 55 68 81 66 41 35 32 36 51 46 53 51 46 43 43 42 42 42 40
88 87 87 87 88 95 97 96 82 83 84 99 91 53 45 46 49 64 70 77 97 97 98 99 96 92 77 100 74 42 42 40 45 44 48 52 44 46 44 42 41 47 39 40
86 86 86 90 91 92 96 80 85 85 92 93 86 67 66 70 97 100 95 99 98 99 99 98 98 73 94 98 54 41 39 45 48 44 42 41 39 39 41 40 42 44 46 46
88 91 92 96 96 98 94 90 90 96 96 100 92 75 85 94 99 99 99 98 100 97 99 94 93 99 98 66 48 41 46 50 48 45 40 41 42 40 42 42 44 46 50 50
87 82 87 100 95 84 85 93 99 99 98 92 94 62 84 83 99 99 97 87 95 85 69 64 82 65 47 37 34 34 43 42 44 51 52 47 46 46 46 46 46 45 48 49
70 96 95 93 86 94 96 100 100 98 100 96 71 50 68 69 90 98 79 76 60 66 67 66 64 57 47 37 34 39 43 42 40 38 39 39 42 48 51 50 49 51 51 51
86 90 93 96 99 100 100 96 93 93 59 75 72 63 69 95 80 94 69 66 60 56 58 72 67 63 49 46 47 48 44 42 40 38 40 43 43 46 49 50 52 53 53 74
92 97 100 100 98 100 100 98 75 86 79 76 88 98 97 98 93 93 63 97 90 62 86 66 60 61 52 51 49 48 45 44 44 44 46 46 48 48 51 54 53 59 66 84
100 96 100 97 100 79 63 74 72 91 77 75 85 98 98 96 94 90 100 80 71 87 81 56 68 70 71 54 51 50 54 59 56 58 56 70 74 95 100 100 100 98 97 98
97 86 99 88 75 79 89 92 87 84 78 79 92 92 79 79 99 77 74 95 82 60 61 83 87 78 71 68 63 67 90 100 100 87 100 100 100 100 100 100 100 100 95 90
90 71 98 86 95 100 100 100 100 83 81 70 58 60 75 76 66 69 80 55 56 76 85 88 78 77 76 77 86 98 97 89 91 98 98 100 100 100 100 100 98 99 98 86
85 99 91 100 100 100 100 100 95 77 78 91 52 79 55 59 57 57 54 80 91 86 92 93 91 91 94 99 100 100 100 100 98 99 99 100 100 94 78 87 94 86 86 87

GFSNW_sfc_rhum_156.txt.gz
RH
85 86 85 83 83 83 78 79 99 73 65 91 67 74 39 40 20 21 25 25 19 19 18 20 22 20 16 14 16 21 18 32 54 32 21 18 18 21 22 50 45 49 77 92
88 86 85 83 83 82 50 90 85 62 65 87 76 43 38 28 29 22 19 19 16 18 28 65 46 27 20 17 21 30 30 46 42 37 30 22 23 19 22 32 36 49 74 81
88 90 88 84 82 78 65 77 99 87 92 58 48 43 39 35 28 24 19 19 20 30 39 33 61 29 20 20 22 52 43 34 46 66 46 29 32 25 23 34 77 72 78 68
90 91 87 84 81 76 89 80 76 63 95 90 67 50 34 33 35 28 22 26 27 34 66 44 48 35 31 26 35 33 36 53 46 36 32 32 38 37 38 44 46 68 65 42
88 94 93 87 83 76 90 96 70 50 43 53 59 60 46 38 30 29 32 30 23 27 32 48 42 32 34 36 30 36 39 65 56 69 44 40 56 60 63 41 36 34 32 38
85 89 94 88 82 77 70 56 41 52 58 58 60 60 41 33 29 26 24 28 28 31 30 30 35 43 43 43 48 49 49 59 61 69 46 41 59 63 54 35 28 29 37 32
84 87 93 89 84 73 50 50 45 59 76 47 46 39 35 32 33 37 29 30 36 29 29 38 41 42 40 42 47 47 55 57 62 78 62 83 56 26 23 26 25 26 29 26
81 88 91 90 85 80 69 51 61 67 80 41 34 36 34 34 34 38 35 30 28 30 55 72 66 56 51 46 43 46 48 62 79 84 70 48 36 26 25 50 60 50 33 38
81 85 96 93 87 79 79 82 70 72 73 59 31 35 34 45 44 43 38 30 33 41 85 84 73 60 37 34 43 36 43 57 78 73 84 68 36 60 51 29 56 38 35 43
87 85 90 91 86 78 76 90 78 77 73 42 41 44 46 36 40 46 45 46 52 53 92 96 71 63 37 49 40 40 68 71 95 82 74 49 27 59 49 60 64 47 43 38
86 93 95 93 90 82 74 82 84 79 75 49 40 40 46 44 58 76 56 62 65 98 100 97 68 65 50 50 41 46 80 83 78 73 75 79 27 39 54 58 45 40 36 42
90 92 91 90 91 84 74 91 90 87 88 81 68 56 45 41 40 68 66 64 85 85 92 88 83 76 77 68 92 37 78 59 56 46 56 68 60 47 46 41 40 43 40 40
93 92 93 91 90 83 77 94 95 93 98 81 66 54 46 44 47 46 77 60 48 77 76 88 90 85 63 81 70 61 47 44 86 73 55 75 69 47 39 38 39 37 38 41
93 92 91 90 84 82 81 95 96 88 80 86 59 39 51 39 40 43 52 58 55 59 81 95 98 81 57 95 86 88 69 71 78 77 49 39 43 41 44 40 38 38 38 41
92 90 90 89 87 88 82 93 91 83 78 87 65 44 37 35 42 45 50 58 73 81 97 100 98 63 69 64 63 68 43 49 71 86 54 55 56 46 41 45 44 40 41 43
92 90 86 84 81 81 92 100 84 83 89 95 78 41 41 38 45 48 57 66 78 88 95 94 85 64 85 88 69 40 40 34 51 61 53 58 54 46 42 44 42 40 42 40
89 86 84 84 83 83 88 94 81 78 85 99 91 53 40 36 42 59 66 71 92 92 98 98 96 79 76 92 83 49 42 40 44 46 48 53 42 47 41 40 40 45 38 39
86 86 87 86 85 85 88 86 85 83 95 88 81 65 66 58 77 85 89 92 98 99 99 99 98 76 96 99 71 52 40 39 45 46 41 42 38 40 40 39 42 43 45 46
90 88 88 93 95 98 96 91 86 92 90 92 85 75 81 81 98 99 100 99 100 98 100 99 97 99 98 84 56 44 41 44 48 43 40 39 42 40 41 41 43 47 51 52
89 90 98 100 97 92 94 98 99 99 100 98 95 60 81 82 100 100 100 99 99 99 90 77 97 78 59 45 41 37 42 46 44 52 53 47 47 46 46 43 45 47 51 55
94 99 100 96 93 96 97 100 98 99 99 95 78 55 74 73 92 94 88 99 99 96 88 90 76 65 55 40 39 35 46 40 44 40 41 42 43 50 51 50 51 56 58 66
82 88 92 97 98 98 97 94 82 85 65 72 73 63 53 82 72 89 87 91 76 68 60 70 71 71 46 42 40 49 44 41 41 38 39 41 43 49 53 56 63 67 73 82
78 86 100 100 98 100 95 88 76 83 82 79 81 97 89 91 89 100 99 100 86 63 90 68 73 59 46 44 50 48 44 42 40 42 44 46 52 54 59 69 72 75 85 88
97 97 99 93 95 79 71 81 93 94 89 82 89 94 91 95 98 98 99 79 72 79 74 66 82 81 83 61 59 51 69 77 72 79 84 91 92 98 99 100 93 91 94 95
100 91 98 84 78 83 90 88 91 86 82 87 96 98 98 100 99 83 76 86 77 65 65 95 87 78 82 74 78 87 98 100 98 97 100 100 98 98 99 99 99 93 92 92
82 73 92 87 93 100 100 100 100 78 88 86 87 85 98 76 73 68 76 55 56 88 91 90 79 83 97 95 98 97 99 93 96 98 99 99 99 98 98 97 95 94 91 92
82 97 92 100 94 100 100 100 97 78 86 100 70 77 58 59 59 55 53 85 96 92 94 94 95 96 99 100 100 100 100 99 99 99 99 98 99 92 84 90 91 87 90 92

GFSNW_sfc_rhum_162.txt.gz
RH
86 88 90 93 93 87 77 96 100 89 90 96 93 85 72 61 40 34 38 36 40 41 41 46 41 40 39 28 34 41 47 54 72 43 31 30 32 44 44 80 54 75 86 69
80 85 89 90 93 84 90 97 94 94 92 97 98 82 64 56 49 51 38 37 37 37 44 47 55 53 43 36 44 50 46 66 65 48 46 43 42 38 45 52 72 76 88 85
77 84 86 89 92 87 88 96 99 98 100 86 85 80 68 66 50 50 46 36 39 41 45 52 57 47 41 46 46 56 46 53 58 63 62 58 58 47 44 58 90 80 82 72
75 80 85 88 88 91 95 98 98 84 96 97 96 81 76 65 60 44 43 42 40 44 64 59 61 56 48 43 53 54 51 66 64 58 55 53 57 54 53 58 62 73 59 64
74 76 81 84 88 94 98 100 99 92 84 74 86 89 84 74 68 66 49 47 40 42 53 52 53 49 52 53 54 54 54 67 74 85 64 61 74 74 70 59 58 58 56 60
71 72 80 83 88 92 100 99 93 81 82 82 93 87 76 67 63 58 45 43 48 46 51 52 53 53 59 61 66 67 67 74 81 75 70 71 83 72 67 58 51 52 64 53
71 74 78 81 84 86 99 97 94 97 96 80 73 63 62 65 59 69 51 52 50 51 51 54 56 57 53 60 61 60 71 75 84 96 77 89 62 52 50 52 49 46 47 67
71 75 77 80 83 82 98 98 98 99 96 75 72 67 64 62 56 67 53 45 53 64 69 87 77 77 70 64 54 53 58 74 94 90 86 68 54 44 54 55 56 58 64 78
74 77 78 78 82 83 98 96 94 98 96 85 56 68 66 80 74 62 52 47 64 73 92 92 88 80 65 59 48 55 56 67 82 99 92 94 66 56 61 62 87 66 68 80
75 78 79 79 81 82 94 98 97 97 99 73 64 75 72 65 68 74 61 56 60 70 98 98 94 83 52 72 62 63 85 92 95 90 90 86 58 48 58 74 70 62 63 74
78 80 79 79 81 82 90 96 96 96 98 79 82 78 64 67 76 83 78 79 82 96 92 95 91 92 76 70 55 63 73 92 98 90 97 93 57 71 70 69 74 61 60 70
79 79 80 80 82 81 84 98 93 96 98 86 90 79 75 67 65 88 90 83 93 93 97 96 94 98 92 88 95 63 90 97 99 89 82 66 75 78 82 73 62 59 69 82
78 80 81 83 82 82 86 96 95 99 98 90 84 68 66 59 64 68 88 90 88 93 90 95 98 97 89 96 90 91 79 80 96 95 87 85 86 79 69 69 55 57 72 77
82 81 83 83 83 84 87 96 98 97 96 97 80 60 66 56 61 70 68 73 79 86 96 99 100 98 83 92 87 97 77 74 92 98 90 85 84 82 71 72 58 66 69 73
81 83 84 83 82 87 93 98 97 94 93 96 92 72 57 57 66 67 72 77 86 96 98 98 98 92 91 90 90 94 71 85 97 99 86 91 85 74 79 78 60 65 66 72
82 81 80 83 86 88 97 100 98 94 94 98 94 77 68 64 70 73 79 87 93 95 96 96 96 82 87 98 98 73 66 78 76 86 82 88 82 74 77 77 61 60 61 67
80 83 83 89 90 95 97 97 96 88 92 97 96 90 70 62 70 85 88 90 94 94 96 99 96 96 88 98 92 68 61 59 61 71 78 72 59 68 66 62 59 63 59 63
85 87 93 92 93 93 96 99 85 83 96 96 98 96 87 80 89 98 98 98 97 98 97 98 99 94 94 98 73 59 54 54 59 62 65 61 60 61 61 59 60 63 66 67
92 94 92 90 95 98 100 86 88 94 92 98 95 97 93 93 94 98 99 98 100 98 99 98 98 99 97 82 80 77 73 78 71 65 64 56 64 63 60 58 65 70 72 71
84 89 97 100 100 88 86 95 98 98 94 92 95 88 96 93 99 100 99 98 97 98 94 94 99 94 62 62 68 69 68 70 64 78 72 70 68 68 64 62 68 68 71 75
96 100 100 98 86 94 95 96 99 98 95 95 86 94 97 96 98 98 99 99 98 99 94 90 94 93 86 67 62 60 69 70 70 62 65 62 61 70 72 76 76 77 78 78
94 96 94 96 96 96 94 98 96 94 92 96 98 96 87 96 96 99 99 99 100 98 98 98 98 90 70 75 79 83 78 74 66 59 63 68 67 71 75 78 83 82 83 85
89 91 97 96 97 96 84 91 89 87 96 97 97 93 98 95 96 97 99 99 98 96 99 94 92 92 86 76 77 82 79 81 82 77 76 76 81 80 77 86 87 86 87 92
95 93 99 93 94 85 95 95 96 93 100 97 97 99 99 97 96 98 100 97 99 97 96 86 99 96 96 89 85 78 88 88 88 91 90 88 88 93 93 91 91 88 91 96
96 91 94 100 94 99 99 99 98 96 97 98 99 100 100 100 99 96 97 96 99 92 91 99 99 98 98 94 94 92 93 94 94 93 95 96 95 94 97 97 94 92 92 92
97 94 95 98 97 99 95 96 97 97 97 99 100 99 99 99 96 97 95 88 86 94 99 99 97 99 99 99 97 98 96 96 96 97 97 99 98 96 98 96 95 96 92 93
93 98 99 98 99 98 99 100 97 96 99 100 100 99 97 99 97 90 95 96 97 99 98 97 98 99 99 100 99 99 97 98 98 97 96 99 98 96 91 94 99 95 95 96

GFSNW_sfc_rhum_165.txt.gz
RH
78 81 85 89 91 96 89 95 100 88 91 98 91 86 80 67 50 45 44 44 41 43 41 42 43 40 42 31 36 36 48 57 67 40 34 38 37 46 51 82 58 76 86 79
75 80 83 85 90 94 98 99 97 97 93 96 92 80 72 56 56 52 52 43 43 38 41 48 53 51 45 45 42 45 43 65 57 45 42 44 45 46 50 57 75 74 91 81
70 73 80 85 88 90 97 100 100 100 98 89 75 83 76 70 56 53 47 50 50 42 48 50 55 46 43 49 45 59 49 56 48 57 47 60 58 52 49 57 89 76 67 64
68 69 71 81 86 86 98 100 99 92 99 98 84 76 73 69 67 50 48 62 52 46 61 59 61 56 51 45 50 53 51 60 64 60 58 59 61 58 60 67 58 68 55 54
68 68 71 78 84 85 100 100 100 96 85 83 89 84 80 79 70 64 68 54 48 46 50 52 54 54 47 45 55 60 57 66 75 82 62 64 78 79 78 68 66 65 60 65
68 68 73 78 82 84 100 99 96 97 90 83 94 88 82 73 70 66 58 62 56 52 50 46 45 46 47 56 62 67 69 76 84 75 70 67 74 77 64 64 64 63 70 55
67 68 75 78 80 82 98 98 99 100 98 85 84 69 70 75 72 75 58 66 73 52 55 54 56 60 56 62 63 62 72 78 82 93 70 92 62 52 56 62 57 54 52 51
67 71 75 78 79 78 98 98 99 100 99 82 68 70 66 68 69 72 65 56 54 63 66 85 74 78 67 62 60 55 62 78 94 90 81 60 51 42 52 64 59 50 53 56
70 72 73 76 76 74 92 97 96 99 100 96 59 68 67 79 86 81 67 51 66 76 88 90 81 74 66 59 51 62 62 71 78 97 94 86 65 53 61 66 85 59 67 76
71 72 74 75 74 75 92 98 95 98 100 88 66 80 80 75 76 80 65 66 70 73 95 96 90 80 57 68 61 61 90 96 90 84 86 83 60 47 59 81 72 66 73 76
73 73 74 74 75 78 88 96 94 97 100 92 77 71 68 77 80 86 74 83 84 94 92 92 90 89 74 71 53 62 83 96 92 93 97 91 65 67 75 69 73 69 72 80
75 73 73 74 76 77 80 96 95 95 100 98 88 78 75 74 62 84 90 78 92 88 95 95 93 96 94 88 94 70 88 87 97 99 94 79 69 84 80 83 77 64 68 83
73 74 73 75 76 75 81 97 94 98 99 98 84 71 62 66 68 70 86 93 93 93 94 93 91 98 98 97 94 93 82 84 99 95 77 88 83 80 75 82 77 63 66 81
70 74 76 80 79 75 77 96 96 97 98 100 82 64 68 58 67 68 68 80 90 94 96 99 99 98 87 93 87 96 84 80 84 90 80 81 83 81 82 80 72 65 76 80
79 75 76 78 76 76 88 95 93 90 99 99 88 76 63 62 69 69 76 84 91 97 99 98 97 93 92 92 92 88 69 70 95 92 80 92 88 77 78 84 80 70 78 84
79 78 77 78 80 81 98 100 97 87 99 95 93 74 74 72 74 78 85 89 93 95 95 97 96 85 88 94 91 70 69 66 71 78 80 87 72 75 82 83 81 70 73 78
79 82 80 81 84 93 99 98 94 92 96 95 90 80 73 70 80 92 92 91 94 94 92 97 94 95 91 96 90 71 66 67 76 82 80 78 78 79 62 82 71 67 69 77
80 82 82 83 84 86 98 98 91 94 97 92 96 93 84 80 92 98 97 98 98 98 93 98 99 94 96 98 73 59 56 55 57 56 54 58 62 65 65 68 68 68 77 80
79 80 84 93 96 100 99 92 89 95 90 97 90 94 93 91 92 94 96 97 99 96 98 98 98 97 95 82 79 77 68 73 71 72 73 72 75 69 66 66 69 70 74 79
83 94 100 100 99 92 90 94 98 98 92 90 94 95 97 93 91 95 97 99 99 98 89 96 98 86 66 65 65 64 68 76 77 86 85 80 79 76 68 66 70 68 71 75
99 100 100 98 87 94 96 99 95 98 96 93 81 95 98 95 97 92 99 99 99 95 94 93 92 93 88 67 67 67 60 74 74 74 69 72 73 87 91 88 77 77 77 75
92 94 94 94 95 95 90 94 95 88 92 96 94 93 95 99 97 98 99 99 99 98 98 98 96 91 84 88 88 87 80 76 71 67 67 69 74 78 74 76 80 79 79 83
86 89 95 92 96 91 89 97 96 92 96 98 99 98 94 99 97 98 99 99 97 99 99 97 92 92 89 88 89 88 84 82 81 82 83 82 84 82 79 84 86 86 86 90
94 91 100 93 92 87 94 94 94 92 96 98 96 97 99 98 99 98 100 88 100 98 98 84 96 97 98 92 89 87 90 87 86 89 88 89 88 92 92 92 91 89 91 96
94 90 96 98 92 97 97 98 99 96 98 98 99 99 99 99 99 98 88 98 97 95 91 96 100 97 96 93 90 89 92 96 95 92 94 95 93 92 95 96 94 92 93 92
94 91 97 98 94 95 94 94 96 97 97 99 100 99 99 98 95 95 86 92 88 88 99 99 99 99 99 99 96 97 96 94 95 95 96 96 94 93 96 95 94 95 91 91
91 98 99 99 99 100 96 98 97 97 100 99 99 99 96 99 98 98 94 94 95 99 98 97 94 99 99 100 99 98 99 99 97 97 96 99 97 94 92 95 98 94 94 95

GFSNW_sfc_rhum_168.txt.gz
RH
69 70 74 82 86 92 92 98 100 88 93 98 96 85 82 67 61 50 49 53 48 45 43 40 44 47 43 39 38 37 50 55 63 37 39 43 41 44 46 75 54 76 86 67
67 70 72 78 85 89 98 99 99 95 94 98 98 87 78 66 61 56 58 52 49 48 48 50 49 46 45 47 43 50 47 63 53 46 42 38 51 50 54 65 76 75 87 71
61 69 71 72 81 84 98 100 100 100 99 89 77 86 79 70 61 54 46 50 54 58 50 49 55 46 41 49 44 56 49 54 48 64 48 52 51 54 52 57 89 75 71 60
61 63 68 69 74 84 98 100 99 93 100 99 92 77 77 78 76 62 58 64 52 50 65 55 58 51 51 46 51 56 48 59 62 59 52 59 57 56 58 64 59 69 52 49
68 66 67 69 73 81 99 100 100 99 99 90 97 82 78 78 71 66 71 60 50 57 60 50 52 57 53 45 59 58 59 64 74 80 61 64 72 76 76 63 62 65 60 62
64 66 70 70 71 82 100 99 96 99 98 99 99 96 81 72 69 69 60 60 73 75 62 51 42 46 45 44 54 68 72 72 85 75 70 68 75 80 70 64 69 64 70 56
59 63 68 74 72 79 97 98 98 100 98 98 91 91 83 77 72 80 68 70 79 64 59 58 62 61 60 65 64 60 74 78 80 90 75 92 62 51 54 62 61 62 59 54
61 65 69 73 74 75 99 97 98 100 99 98 86 82 78 84 72 90 78 67 60 68 78 84 73 79 67 63 63 64 66 78 90 86 79 60 53 42 50 59 57 48 54 56
69 69 68 68 69 75 95 98 96 99 100 92 81 95 88 99 98 94 79 62 70 86 99 99 96 87 63 61 55 66 65 75 81 94 92 88 60 53 60 69 72 55 67 72
69 70 70 69 67 69 91 98 95 98 100 90 85 98 94 90 94 93 74 79 86 90 99 98 96 88 57 67 60 56 88 96 93 89 93 83 55 67 60 78 71 62 76 82
71 72 69 68 68 69 85 95 97 94 100 90 80 82 97 90 95 90 75 84 86 97 98 98 94 89 72 70 57 64 75 96 96 93 97 92 70 72 79 76 87 79 73 81
73 73 72 69 70 72 77 98 96 95 98 92 94 88 76 80 67 77 90 78 83 86 93 95 91 92 90 83 94 63 79 79 93 90 90 70 71 75 71 76 84 85 74 68
73 74 73 70 70 70 77 97 97 99 98 99 97 89 75 67 77 74 88 96 89 96 89 94 97 93 92 99 96 87 83 90 96 99 84 85 75 70 74 80 85 81 81 71
74 73 77 74 71 71 74 97 96 94 98 100 88 70 84 66 70 69 73 82 94 95 96 97 97 98 94 94 88 96 80 89 89 94 78 72 75 79 80 79 84 82 73 80
73 75 69 69 74 73 86 98 97 92 99 99 97 76 64 67 68 77 87 91 94 98 99 96 98 98 97 94 93 92 78 79 91 80 62 79 79 70 77 84 82 85 78 87
73 76 76 71 75 76 99 100 96 93 93 100 99 78 79 70 74 82 90 89 94 95 95 96 95 86 90 96 99 62 58 56 57 59 65 84 79 76 79 84 83 81 79 81
76 76 77 76 77 94 95 94 96 86 92 100 98 91 71 76 85 94 94 92 95 94 95 98 96 96 95 100 84 66 64 62 64 70 85 88 81 81 64 67 76 78 83 82
78 82 81 80 79 86 95 89 83 90 97 99 98 88 86 84 94 99 96 98 97 97 94 96 92 95 95 98 72 63 55 53 57 57 72 64 63 63 64 68 78 76 85 88
81 80 82 94 94 98 97 83 94 98 98 99 98 87 94 89 91 93 95 95 98 95 96 98 98 98 96 81 79 80 76 69 66 65 68 74 80 80 80 73 76 77 86 86
81 94 99 100 98 84 88 97 100 100 100 96 97 92 98 88 88 90 91 99 96 95 93 96 99 85 62 59 63 63 66 70 70 82 86 84 84 84 80 74 74 71 75 83
97 100 100 96 90 98 100 99 98 98 98 97 90 92 99 94 89 90 90 91 98 98 92 92 94 94 77 64 67 62 64 67 66 71 72 76 76 85 91 89 84 80 79 78
93 97 96 97 99 99 97 93 93 84 86 92 88 87 96 97 96 95 94 91 99 97 98 98 97 92 90 92 92 90 84 77 79 78 79 83 84 85 90 93 94 90 79 84
98 94 94 95 95 95 88 98 96 98 96 99 97 96 95 99 96 98 95 98 91 98 99 95 91 91 88 91 90 88 84 78 79 81 84 84 87 86 88 87 86 85 85 89
93 89 98 90 96 91 93 91 94 93 94 98 98 96 98 98 99 98 98 81 96 94 100 88 97 97 98 94 90 89 90 88 87 89 89 90 91 94 93 93 91 89 90 95
95 87 98 99 94 97 98 96 98 98 96 97 96 96 99 99 99 98 92 98 94 96 92 96 98 99 98 94 90 88 91 98 96 91 95 94 94 93 96 96 93 92 92 91
94 90 95 96 91 97 98 98 98 96 93 99 99 99 99 98 97 97 90 81 93 86 97 98 99 99 99 97 95 93 96 93 95 95 95 95 94 92 96 95 94 94 92 90
94 96 96 97 98 100 96 97 96 96 99 99 99 99 92 97 97 95 94 96 94 99 100 99 93 99 98 99 99 98 96 98 97 98 96 98 96 94 92 93 98 92 94 94